Location: Unspecified
(0.0000°N, 0.0000°E)
Time: 06:15:36
(UTC+01:00)

ARIANE 5 R/B - Visible Passes

Search period start: 26 November 2014 00:00
Search period end: 06 December 2014 00:00
Orbit: 538 x 35681 km, 7.3° (Epoch: 24 November)

Date Brightness Start Highest point End Pass type
(mag) Time Alt. Az. Time Alt. Az. Time Alt. Az.
26 Nov 9.6 00:00:00 54° E 01:51:11 62° ENE 03:41:02 10° E visible
26 Nov 10.5 21:20:19 10° E 22:54:03 16° E 23:53:55 10° E visible
27 Nov 10.3 02:52:08 10° W 03:50:56 16° W 05:23:20 10° W visible
27 Nov 6.9 23:05:40 10° W 08:53:46 79° N 09:01:43 10° E visible
28 Nov 9.1 20:01:54 10° WSW 01:29:03 84° N 06:03:42 10° E visible
29 Nov 6.6 17:04:42 10° WSW 17:11:27 64° S 02:57:01 10° E visible
01 Dec 10.1 01:50:34 10° W 03:10:27 24° W 05:52:38 10° W visible
01 Dec 7.2 22:22:29 10° W 08:11:03 79° N 08:20:50 10° E visible
02 Dec 9.2 19:20:38 10° WSW 01:55:37 83° N 05:21:59 10° E visible
03 Dec 6.3 16:23:55 10° WSW 16:29:32 59° S 17:22:29 10° E visible
05 Dec 10.0 00:58:20 10° W 02:29:31 32° W 06:15:48 10° W visible
05 Dec 9.3 21:39:52 10° W 23:22:43 81° WNW 00:00:00 80° WNW visible
